Home > Weather > Ulm > Past weeks

Flag for Germany Weather for the Past 2 Weeks in Ulm, Baden-Württemberg, Germany

Now
50 °F

Partly sunny.


Feels Like: 46 °F
Forecast: 32 / 50 °F
Wind: 10 mph from Southwest

Location: Laupheim Airport

Current Time: Feb 6, 2016 at 3:00:53 PM

Latest Report: Feb 6, 2016 at 2:20 PM


Visibility: N/A

Pressure: 30.01 "Hg

Humidity: 58%

Dew point: 36 °F

Location of UlmLocation

Historic Weather in Ulm — Graph

°F

Ulm Temperature Yesterday

Maximum temperature yesterday: 45 °F (at 1:20 PM)
Minimum temperature yesterday: 32 °F (at 11:20 PM)
Average temperature yesterday: 39 °F

High & Low Weather Summary for the Past Weeks

 TemperatureHumidityPressure
High55 °F (Feb 1, 11:49 AM)100% (Jan 23, 8:20 PM)30.63 "Hg (Jan 23, 8:20 PM)
Low21 °F (Jan 22, 8:20 PM)47% (Jan 25, 2:20 PM)29.92 "Hg (Jan 30, 6:20 PM)
Average40 °F82%30.26 "Hg
* Reported Jan 22 1:20 PM — Feb 6 1:20 PM, Ulm, Weather by CustomWeather, © 2016

Note: Actual official high and low records may vary slightly from our data, if they occured in-between our weather recording intervals... More about our weather records

Advertising

Ulm Weather History for the Previous 24 Hours

 ConditionsComfort  
Time TempWeatherWind HumidityBarometerVisibility
1:20 PM
Sat, Feb 6
50 °FPartly sunny.10 mph62%30.07 "HgN/A
12:20 PM45 °FPartly sunny.7 mph76%30.09 "HgN/A
11:20 AM41 °FPartly sunny.8 mph93%30.12 "HgN/A
10:20 AM34 °FPartly sunny.5 mph100%30.12 "Hg5 mi
9:20 AM30 °FIce fog.3 mph100%30.12 "Hg1 mi
8:20 AM30 °FIce fog.6 mph93%30.12 "Hg0 mi
7:20 AM30 °FIce fog.6 mph100%30.12 "Hg0 mi
6:20 AM30 °FIce fog.5 mph100%30.15 "Hg0 mi
5:20 AM30 °FIce fog.3 mph93%30.15 "Hg0 mi
4:20 AM28 °FIce fog.3 mph100%30.15 "Hg0 mi
3:20 AM28 °FIce fog.3 mph100%30.18 "Hg0 mi
2:20 AM28 °FIce fog.2 mph100%30.18 "Hg0 mi
1:20 AM30 °FIce fog.2 mph100%30.21 "Hg0 mi
12:20 AM30 °FIce fog.2 mph93%30.21 "Hg1 mi
11:20 PM
Fri, Feb 5
32 °FFog.2 mph100%30.21 "Hg5 mi
10:20 PM36 °FFog.2 mph100%30.24 "Hg6 mi
9:20 PM37 °FPassing clouds.5 mph100%30.24 "HgN/A
8:20 PM36 °FPassing clouds.3 mph93%30.27 "HgN/A
7:20 PM37 °FPassing clouds.3 mph93%30.27 "HgN/A
6:20 PM41 °FPassing clouds.5 mph87%30.30 "HgN/A
5:20 PM43 °FPartly sunny.8 mph81%30.30 "HgN/A
4:20 PM45 °FScattered clouds.10 mph76%30.30 "HgN/A
3:20 PM45 °FPartly sunny.13 mph81%30.30 "HgN/A
Weather by CustomWeather, © 2016

See weather overviewHow to use our weather pages